Date String (YYYY-MM-DD hh:mm:ss) UTC,Instrument flags,Ambient pressure (hPa),Sample flow (lpm),Bypass flow (lpm),Sample temperature (°C),Ambient temperature (°C),ASC tube jacket temperature (°C),LED temperature (°C),Box temperature (°C),Sample RH (%),Span deviation,Mass concentration (μg/m³),Mass concentration (μg/m³),Mass concentration (μg/m³)
DateTimeUTC,F1_M11,P_M11,Q1_M11,Q2_M11,T1_M11,T2_M11,T3_M11,T4_M11,T5_M11,U1_M11,ZSPAN_M11,X2_M11,X0_M11,X1_M11
2021-10-02 19:00:00,,0832.5,4.99,0.00,29.9,28.9,00.0,38.8,31.8,17.4,0002.6,0005.94,0015.63,0005.05
2021-10-02 19:01:00,,0832.5,5.00,0.00,29.9,29.1,00.0,38.8,31.8,17.5,0002.6,0006.03,0015.71,0005.07
2021-10-02 19:02:00,,0832.4,5.00,0.00,30.0,29.2,00.0,38.9,31.9,17.2,0002.4,0006.09,0015.72,0005.10
2021-10-02 19:03:00,,0832.4,5.00,0.00,30.0,29.2,00.0,38.9,31.9,17.2,0002.4,0006.11,0015.43,0005.12
2021-10-02 19:04:00,,0832.5,4.99,0.00,30.1,29.0,00.0,38.9,31.9,16.9,0002.0,0006.10,0014.58,0005.10
2021-10-02 19:05:00,,0832.4,5.01,0.00,30.0,27.4,00.0,38.9,31.5,17.0,0002.1,0006.09,0014.15,0005.08
2021-10-02 19:06:00,,0832.4,5.00,0.00,29.8,26.8,00.0,38.9,31.3,17.0,0002.2,0006.07,0014.05,0005.07
2021-10-02 19:07:00,,0832.3,5.01,0.00,29.8,27.1,00.0,38.9,31.3,17.0,0002.5,0006.03,0013.93,0005.04
2021-10-02 19:08:00,,0832.3,4.99,0.00,29.8,27.5,00.0,38.9,31.4,17.3,0002.1,0005.93,0013.40,0005.00
2021-10-02 19:09:00,,0832.3,5.01,0.00,29.8,27.9,00.0,38.8,31.5,17.4,0002.1,0005.87,0013.57,0004.97
2021-10-02 19:10:00,,0832.3,4.99,0.00,29.8,28.2,00.0,38.8,31.6,17.1,0002.2,0005.87,0013.86,0004.95
2021-10-02 19:11:00,,0832.3,4.99,0.00,29.8,28.5,00.0,38.8,31.7,17.0,0001.9,0005.82,0013.83,0004.92
2021-10-02 19:12:00,,0832.3,5.01,0.00,29.9,28.7,00.0,38.9,31.7,16.8,0002.2,0005.69,0012.87,0004.87
2021-10-02 19:13:00,,0832.3,4.99,0.00,29.9,28.9,00.0,38.9,31.8,16.8,0002.2,0005.60,0012.71,0004.83
2021-10-02 19:14:00,,0832.4,5.02,0.00,30.0,29.0,00.0,38.9,31.8,16.7,0002.4,0005.57,0012.70,0004.81
2021-10-02 19:15:00,,0832.3,4.99,0.00,30.0,29.1,00.0,38.9,31.9,16.9,0002.5,0005.58,0012.60,0004.80
2021-10-02 19:16:00,,0832.3,5.02,0.00,30.0,29.2,00.0,38.9,32.0,16.6,0002.4,0005.62,0012.81,0004.81
2021-10-02 19:17:00,,0832.2,4.99,0.00,30.1,28.8,00.0,39.0,31.8,16.6,0002.2,0005.62,0012.82,0004.83
2021-10-02 19:18:00,,0832.3,5.02,0.00,29.9,26.7,00.0,39.0,31.2,16.8,0001.7,0005.62,0012.93,0004.84
2021-10-02 19:19:00,,0832.2,5.00,0.00,29.7,25.8,00.0,38.9,31.0,16.8,0002.0,0005.64,0013.20,0004.86
2021-10-02 19:20:00,,0832.3,4.99,0.00,29.7,26.1,00.0,38.9,31.0,17.0,0001.9,0005.67,0012.98,0004.86
2021-10-02 19:21:00,,0832.3,5.00,0.00,29.6,26.6,00.0,38.8,31.1,17.1,0001.6,0005.67,0012.89,0004.86
2021-10-02 19:22:00,,0832.3,5.00,0.00,29.6,27.1,00.0,38.8,31.2,17.2,0002.0,0005.62,0012.60,0004.86
2021-10-02 19:23:00,,0832.2,5.00,0.00,29.6,27.6,00.0,38.8,31.3,17.5,0001.8,0005.60,0011.93,0004.84
2021-10-02 19:24:00,,0832.2,4.99,0.00,29.6,27.9,00.0,38.7,31.4,17.5,0001.4,0005.58,0012.11,0004.84
2021-10-02 19:25:00,,0832.2,5.00,0.00,29.7,28.2,00.0,38.7,31.5,17.8,0001.4,0005.63,0011.91,0004.84
2021-10-02 19:26:00,,0832.2,5.01,0.00,29.7,28.4,00.0,38.8,31.5,17.8,0001.1,0005.71,0012.12,0004.89
2021-10-02 19:27:00,,0832.1,4.99,0.00,29.8,28.6,00.0,38.8,31.6,17.4,0001.1,0005.73,0012.15,0004.94
2021-10-02 19:28:00,,0832.2,5.01,0.00,29.8,28.8,00.0,38.8,31.7,17.1,0001.5,0005.77,0013.72,0004.98
2021-10-02 19:29:00,,0832.2,4.99,0.00,29.8,28.9,00.0,38.8,31.7,16.4,0002.0,0005.78,0015.06,0004.97
2021-10-02 19:30:00,,0832.2,4.99,0.00,29.9,29.0,00.0,38.8,31.8,16.2,0001.9,0005.77,0015.23,0004.92
2021-10-02 19:31:00,,0832.2,5.00,0.00,29.9,29.1,00.0,38.8,31.8,16.4,0002.1,0005.75,0014.98,0004.88
2021-10-02 19:32:00,,0832.1,5.01,0.00,30.0,29.2,00.0,38.9,31.9,16.6,0002.6,0005.71,0014.57,0004.88
2021-10-02 19:33:00,,0832.1,4.98,0.00,30.0,29.3,00.0,38.9,32.0,16.2,0002.8,0005.71,0014.84,0004.86
2021-10-02 19:34:00,,0832.2,5.00,0.00,30.1,29.4,00.0,38.9,32.0,16.2,0002.7,0005.79,0016.22,0004.88
2021-10-02 19:35:00,,0832.1,5.01,0.00,30.1,28.1,00.0,38.9,31.7,16.4,0003.0,0005.82,0016.26,0004.90
2021-10-02 19:36:00,,0832.1,5.00,0.00,29.9,26.1,00.0,38.9,31.1,16.6,0002.8,0005.79,0016.09,0004.89
2021-10-02 19:37:00,,0832.1,5.00,0.00,29.7,25.9,00.0,38.9,31.0,16.7,0003.1,0005.71,0016.34,0004.86
2021-10-02 19:38:00,,0832.1,5.00,0.00,29.6,26.3,00.0,38.9,31.1,17.0,0003.1,0005.63,0016.53,0004.79
2021-10-02 19:39:00,,0832.1,5.00,0.00,29.6,26.8,00.0,38.8,31.1,17.1,0002.9,0005.63,0015.10,0004.75
2021-10-02 19:40:00,,0832.1,5.00,0.00,29.6,27.2,00.0,38.8,31.2,16.5,0002.8,0005.67,0014.03,0004.76
2021-10-02 19:41:00,,0832.1,5.01,0.00,29.6,27.6,00.0,38.7,31.3,15.8,0002.7,0005.67,0015.03,0004.78
2021-10-02 19:42:00,,0832.1,5.00,0.00,29.6,28.0,00.0,38.7,31.4,15.9,0002.6,0005.65,0015.53,0004.76
2021-10-02 19:43:00,,0832.1,4.99,0.00,29.7,28.2,00.0,38.7,31.5,16.3,0002.6,0005.65,0015.50,0004.75
2021-10-02 19:44:00,,0832.1,5.00,0.00,29.7,28.5,00.0,38.7,31.5,15.6,0002.7,0005.64,0014.88,0004.73
2021-10-02 19:45:00,,0832.0,5.00,0.00,29.7,28.7,00.0,38.8,31.6,16.1,0002.6,0005.53,0014.23,0004.67
2021-10-02 19:46:00,,0832.1,5.01,0.00,29.8,28.8,00.0,38.8,31.7,15.6,0002.6,0005.50,0013.92,0004.61
2021-10-02 19:47:00,,0832.1,5.00,0.00,29.8,29.0,00.0,38.8,31.7,15.4,0002.8,0005.42,0013.69,0004.53
2021-10-02 19:48:00,,0832.1,5.00,0.00,29.9,29.1,00.0,38.8,31.8,15.7,0002.4,0005.34,0013.63,0004.47
2021-10-02 19:49:00,,0832.1,5.00,0.00,29.9,29.2,00.0,38.8,31.8,16.0,0002.3,0005.28,0013.59,0004.43
2021-10-02 19:50:00,,0832.0,5.00,0.00,30.0,29.3,00.0,38.8,31.9,16.2,0002.1,0005.17,0013.36,0004.37
2021-10-02 19:51:00,,0832.0,4.99,0.00,30.0,29.4,00.0,38.9,31.9,16.1,0002.1,0005.07,0012.94,0004.33
2021-10-02 19:52:00,,0832.0,5.01,0.00,30.1,29.2,00.0,38.9,31.9,16.3,0002.4,0005.04,0011.83,0004.31
2021-10-02 19:53:00,,0832.0,5.00,0.00,30.0,27.3,00.0,38.9,31.4,16.9,0002.7,0005.07,0012.07,0004.35
2021-10-02 19:54:00,,0832.0,5.00,0.00,29.8,25.9,00.0,38.9,30.9,17.4,0002.8,0005.07,0014.36,0004.37
2021-10-02 19:55:00,,0832.0,5.01,0.00,29.7,26.1,00.0,38.9,31.0,17.4,0002.7,0005.08,0014.37,0004.40
2021-10-02 19:56:00,,0831.9,4.99,0.00,29.6,26.6,00.0,38.8,31.1,17.4,0002.7,0005.10,0014.21,0004.44
2021-10-02 19:57:00,,0831.9,5.00,0.00,29.6,27.1,00.0,38.8,31.2,17.1,0002.7,0005.12,0014.46,0004.46
2021-10-02 19:58:00,,0831.8,5.00,0.00,29.6,27.5,00.0,38.7,31.3,15.7,0002.9,0005.11,0014.71,0004.46
2021-10-02 19:59:00,,0831.8,5.01,0.00,29.6,27.9,00.0,38.7,31.4,16.1,0003.2,0005.06,0014.89,0004.44
